GEC8354 ESSA-EFHK

Flight info

Callsign GEC8354
Flight time 0h 40m
Altitude 31000
Route TOVRI N851 RIKUM DCT RIRIP Y364 LAKUT
Aircraft A321/M-SDE3FGHIRWY/LB1

Departure

Time 2026-04-21 15:01
Airport Stockholm-Arlanda Airport (ESSA)

Arrival

Time 2026-04-21 15:42
Airport Helsinki Vantaa Airport (EFHK)
Time Latitude Longitude Altitude Speed Heading
2026-04-21 14:37 59.63875 17.93028 110 ft 0 kts 207°
2026-04-21 14:50 59.63882 17.93035 111 ft 2 kts 207°
2026-04-21 14:50 59.63899 17.93053 111 ft 3 kts 207°
2026-04-21 14:51 59.63917 17.93071 110 ft 3 kts 208°
2026-04-21 14:51 59.63932 17.93092 109 ft 3 kts 237°
2026-04-21 14:51 59.63938 17.93124 109 ft 3 kts 274°
2026-04-21 14:51 59.63935 17.93156 108 ft 2 kts 296°
2026-04-21 14:52 59.63929 17.93178 110 ft 3 kts 297°
2026-04-21 14:52 59.63922 17.93206 109 ft 1 kts 297°
2026-04-21 14:52 59.63921 17.93208 109 ft 0 kts 297°
2026-04-21 14:54 59.63928 17.93181 110 ft 8 kts 297°
2026-04-21 14:54 59.63969 17.93038 109 ft 12 kts 315°
2026-04-21 14:55 59.64046 17.93028 110 ft 10 kts 343°
2026-04-21 14:55 59.64097 17.92883 110 ft 19 kts 297°
2026-04-21 14:55 59.64163 17.92632 113 ft 20 kts 297°
2026-04-21 14:55 59.64224 17.92399 114 ft 18 kts 297°
2026-04-21 14:56 59.64281 17.92188 112 ft 18 kts 297°
2026-04-21 14:56 59.64341 17.91961 113 ft 19 kts 301°
2026-04-21 14:56 59.64433 17.91940 112 ft 14 kts 10°
2026-04-21 14:56 59.64544 17.91982 110 ft 17 kts 12°
2026-04-21 14:57 59.64669 17.92027 109 ft 23 kts 11°
2026-04-21 14:57 59.64855 17.92093 107 ft 28 kts 11°
2026-04-21 14:57 59.65046 17.92162 107 ft 28 kts 10°
2026-04-21 14:57 59.65230 17.92228 107 ft 27 kts 11°
2026-04-21 14:58 59.65398 17.92301 105 ft 23 kts 29°
2026-04-21 14:58 59.65507 17.92517 105 ft 22 kts 59°
2026-04-21 14:58 59.65551 17.92785 108 ft 19 kts 76°
2026-04-21 14:58 59.65583 17.93033 109 ft 18 kts 77°
2026-04-21 14:59 59.65619 17.93265 109 ft 17 kts 57°
2026-04-21 14:59 59.65697 17.93440 110 ft 16 kts 46°
2026-04-21 14:59 59.65767 17.93584 114 ft 13 kts 46°
2026-04-21 14:59 59.65821 17.93693 112 ft 9 kts 46°
2026-04-21 15:00 59.65861 17.93784 114 ft 8 kts 62°
2026-04-21 15:00 59.65875 17.93880 117 ft 6 kts 75°
2026-04-21 15:00 59.65892 17.94010 116 ft 28 kts 76°
2026-04-21 15:00 59.66004 17.94889 122 ft 101 kts 76°
2026-04-21 15:01 59.66224 17.96613 122 ft 155 kts 74°
2026-04-21 15:01 59.66455 17.98782 671 ft 160 kts 73°
2026-04-21 15:01 59.66631 18.00922 1430 ft 159 kts 76°
2026-04-21 15:01 59.66761 18.03069 2145 ft 155 kts 79°
2026-04-21 15:02 59.66838 18.05174 2828 ft 152 kts 81°
2026-04-21 15:02 59.66865 18.07250 3473 ft 150 kts 84°
2026-04-21 15:02 59.66842 18.09296 4063 ft 148 kts 86°
2026-04-21 15:02 59.66771 18.11326 4667 ft 147 kts 88°
2026-04-21 15:03 59.66786 18.13382 4992 ft 159 kts 70°
2026-04-21 15:03 59.67080 18.15690 5118 ft 185 kts 69°
2026-04-21 15:03 59.67431 18.18287 5291 ft 206 kts 69°
2026-04-21 15:03 59.67820 18.21175 5417 ft 229 kts 70°
2026-04-21 15:04 59.68243 18.24360 5754 ft 246 kts 70°
2026-04-21 15:04 59.68692 18.27756 6218 ft 262 kts 70°
2026-04-21 15:04 59.69153 18.31290 6980 ft 267 kts 71°
2026-04-21 15:04 59.69616 18.34884 7772 ft 271 kts 71°
2026-04-21 15:05 59.70083 18.38518 8566 ft 274 kts 71°
2026-04-21 15:05 59.71036 18.45906 10136 ft 280 kts 71°
2026-04-21 15:05 59.71529 18.49717 10562 ft 296 kts 71°
2026-04-21 15:06 59.72067 18.53822 10718 ft 319 kts 71°
2026-04-21 15:06 59.72634 18.58181 11086 ft 332 kts 72°
2026-04-21 15:06 59.73203 18.62641 11720 ft 336 kts 72°
2026-04-21 15:06 59.73773 18.67157 12421 ft 339 kts 72°
2026-04-21 15:07 59.74350 18.71731 13115 ft 343 kts 72°
2026-04-21 15:07 59.75088 18.76224 13796 ft 343 kts 63°
2026-04-21 15:07 59.76243 18.80350 14443 ft 342 kts 52°
2026-04-21 15:07 59.77608 18.84236 15057 ft 344 kts 52°
2026-04-21 15:08 59.78978 18.88151 15672 ft 347 kts 52°
2026-04-21 15:08 59.80347 18.92076 16267 ft 349 kts 52°
2026-04-21 15:08 59.81746 18.96101 16863 ft 352 kts 52°
2026-04-21 15:08 59.83121 19.00073 17434 ft 355 kts 52°
2026-04-21 15:09 59.84542 19.04189 18131 ft 358 kts 52°
2026-04-21 15:09 59.85957 19.08288 18688 ft 360 kts 52°
2026-04-21 15:09 59.87378 19.12414 19170 ft 363 kts 52°
2026-04-21 15:09 59.88805 19.16566 19653 ft 364 kts 52°
2026-04-21 15:10 59.90242 19.20745 20124 ft 366 kts 52°
2026-04-21 15:10 59.91681 19.24945 20567 ft 368 kts 51°
2026-04-21 15:10 59.93125 19.29172 21016 ft 370 kts 51°
2026-04-21 15:10 59.94576 19.33426 21457 ft 372 kts 51°
2026-04-21 15:11 59.96019 19.37719 21894 ft 375 kts 54°
2026-04-21 15:11 59.97176 19.42426 22325 ft 383 kts 64°
2026-04-21 15:11 59.97918 19.47583 22770 ft 389 kts 71°
2026-04-21 15:11 59.98549 19.52840 23200 ft 391 kts 71°
2026-04-21 15:12 59.98975 19.56354 23487 ft 392 kts 70°
2026-04-21 15:12 59.99623 19.61663 23900 ft 395 kts 70°
2026-04-21 15:12 60.00276 19.66994 24247 ft 397 kts 70°
2026-04-21 15:12 60.00931 19.72374 24624 ft 399 kts 71°
2026-04-21 15:13 60.01582 19.77781 24995 ft 401 kts 71°
2026-04-21 15:13 60.02232 19.83219 25374 ft 403 kts 71°
2026-04-21 15:13 60.02887 19.88682 25741 ft 405 kts 71°
2026-04-21 15:13 60.03543 19.94176 26108 ft 407 kts 71°
2026-04-21 15:14 60.04199 19.99690 26464 ft 409 kts 72°
2026-04-21 15:14 60.04853 20.05230 26819 ft 411 kts 72°
2026-04-21 15:14 60.05506 20.10817 27173 ft 413 kts 72°
2026-04-21 15:14 60.06159 20.16419 27527 ft 415 kts 72°
2026-04-21 15:15 60.06816 20.22063 27870 ft 417 kts 72°
2026-04-21 15:15 60.07473 20.27726 28215 ft 419 kts 72°
2026-04-21 15:15 60.08130 20.33423 28549 ft 421 kts 73°
2026-04-21 15:15 60.08788 20.39152 28875 ft 423 kts 73°
2026-04-21 15:16 60.09444 20.44908 29209 ft 425 kts 73°
2026-04-21 15:16 60.10101 20.50694 29519 ft 427 kts 73°
2026-04-21 15:16 60.10761 20.56503 29819 ft 429 kts 73°
2026-04-21 15:16 60.11422 20.62347 30112 ft 430 kts 73°
2026-04-21 15:17 60.12085 20.68225 30368 ft 432 kts 73°
2026-04-21 15:17 60.12745 20.74106 30587 ft 434 kts 73°
2026-04-21 15:17 60.13406 20.80018 30813 ft 435 kts 73°
2026-04-21 15:17 60.14064 20.85946 31096 ft 435 kts 74°
2026-04-21 15:18 60.14716 20.91868 31225 ft 432 kts 74°
2026-04-21 15:18 60.15346 20.97664 31253 ft 419 kts 74°
2026-04-21 15:18 60.16572 21.08972 31247 ft 412 kts 74°
2026-04-21 15:19 60.17792 21.20216 31243 ft 412 kts 74°
2026-04-21 15:19 60.18999 21.31448 31241 ft 411 kts 74°
2026-04-21 15:20 60.20196 21.42691 31234 ft 411 kts 74°
2026-04-21 15:20 60.21397 21.53933 31231 ft 411 kts 75°
2026-04-21 15:21 60.22581 21.65179 31220 ft 411 kts 75°
2026-04-21 15:21 60.23750 21.76423 31217 ft 410 kts 75°
2026-04-21 15:22 60.24908 21.87669 31201 ft 410 kts 75°
2026-04-21 15:22 60.26063 21.98914 31038 ft 410 kts 75°
2026-04-21 15:23 60.26634 22.04516 30787 ft 406 kts 75°
2026-04-21 15:23 60.27191 22.10048 30333 ft 401 kts 75°
2026-04-21 15:23 60.27741 22.15530 29773 ft 396 kts 75°
2026-04-21 15:23 60.28282 22.20924 29285 ft 389 kts 75°
2026-04-21 15:24 60.28812 22.26224 28805 ft 383 kts 75°
2026-04-21 15:24 60.29326 22.31393 28333 ft 377 kts 75°
2026-04-21 15:24 60.29835 22.36540 27871 ft 371 kts 75°
2026-04-21 15:24 60.30330 22.41587 27419 ft 364 kts 75°
2026-04-21 15:25 60.30815 22.46551 26972 ft 358 kts 75°
2026-04-21 15:25 60.31297 22.51505 26545 ft 353 kts 76°
2026-04-21 15:25 60.31758 22.56300 26128 ft 351 kts 76°
2026-04-21 15:25 60.32225 22.61188 25702 ft 349 kts 76°
2026-04-21 15:26 60.32681 22.65917 25288 ft 347 kts 76°
2026-04-21 15:26 60.33142 22.70679 24879 ft 345 kts 76°
2026-04-21 15:26 60.33599 22.75415 24475 ft 343 kts 76°
2026-04-21 15:26 60.34050 22.80129 24075 ft 343 kts 76°
2026-04-21 15:27 60.34524 22.85056 23656 ft 359 kts 76°
2026-04-21 15:27 60.34994 22.89959 23180 ft 361 kts 76°
2026-04-21 15:27 60.35468 22.94951 22708 ft 360 kts 76°
2026-04-21 15:27 60.35933 22.99899 22248 ft 358 kts 76°
2026-04-21 15:28 60.36390 23.04842 21787 ft 357 kts 76°
2026-04-21 15:28 60.36843 23.09753 21341 ft 355 kts 76°
2026-04-21 15:28 60.37296 23.14708 20893 ft 353 kts 76°
2026-04-21 15:28 60.37740 23.19575 20457 ft 351 kts 76°
2026-04-21 15:29 60.38179 23.24363 20034 ft 350 kts 76°
2026-04-21 15:29 60.38614 23.29158 19616 ft 348 kts 76°
2026-04-21 15:29 60.39051 23.33992 19192 ft 347 kts 76°
2026-04-21 15:29 60.39484 23.38778 18782 ft 345 kts 76°
2026-04-21 15:30 60.39915 23.43544 18367 ft 344 kts 76°
2026-04-21 15:30 60.40343 23.48291 17907 ft 342 kts 76°
2026-04-21 15:30 60.40764 23.53004 17439 ft 340 kts 76°
2026-04-21 15:30 60.41180 23.57693 16988 ft 338 kts 76°
2026-04-21 15:31 60.41592 23.62359 16541 ft 336 kts 76°
2026-04-21 15:31 60.42001 23.66993 16101 ft 334 kts 76°
2026-04-21 15:31 60.42406 23.71598 15665 ft 332 kts 75°
2026-04-21 15:31 60.42806 23.76179 15229 ft 330 kts 75°
2026-04-21 15:32 60.43202 23.80741 14813 ft 328 kts 75°
2026-04-21 15:32 60.43595 23.85270 14408 ft 326 kts 75°
2026-04-21 15:32 60.43967 23.89796 13984 ft 325 kts 77°
2026-04-21 15:32 60.44264 23.94320 13527 ft 322 kts 78°
2026-04-21 15:33 60.44517 23.98806 13067 ft 319 kts 79°
2026-04-21 15:33 60.44749 24.03255 12621 ft 316 kts 81°
2026-04-21 15:33 60.44702 24.07709 12171 ft 316 kts 90°
2026-04-21 15:33 60.44554 24.12094 11741 ft 313 kts 89°
2026-04-21 15:34 60.44417 24.16494 11382 ft 307 kts 89°
2026-04-21 15:34 60.44286 24.20746 11123 ft 299 kts 90°
2026-04-21 15:34 60.43792 24.24812 10810 ft 300 kts 111°
2026-04-21 15:34 60.42574 24.28257 10417 ft 304 kts 134°
2026-04-21 15:35 60.40997 24.31054 10000 ft 303 kts 136°
2026-04-21 15:35 60.39387 24.33840 9566 ft 301 kts 136°
2026-04-21 15:35 60.37797 24.36576 9139 ft 299 kts 136°
2026-04-21 15:35 60.36218 24.39291 8717 ft 296 kts 136°
2026-04-21 15:36 60.34655 24.41977 8290 ft 294 kts 136°
2026-04-21 15:36 60.33103 24.44642 7887 ft 292 kts 136°
2026-04-21 15:36 60.31563 24.47289 7468 ft 289 kts 136°
2026-04-21 15:36 60.30047 24.49891 7219 ft 281 kts 136°
2026-04-21 15:37 60.28596 24.52379 7100 ft 268 kts 136°
2026-04-21 15:37 60.27208 24.54759 6941 ft 257 kts 136°
2026-04-21 15:37 60.25868 24.57094 6639 ft 253 kts 134°
2026-04-21 15:37 60.24574 24.59456 6331 ft 251 kts 134°
2026-04-21 15:38 60.23293 24.61839 5856 ft 255 kts 134°
2026-04-21 15:38 60.22024 24.64442 5138 ft 265 kts 121°
2026-04-21 15:38 60.21474 24.67939 4399 ft 267 kts 84°
2026-04-21 15:38 60.22092 24.71269 4178 ft 248 kts 46°
2026-04-21 15:39 60.23379 24.73350 4054 ft 230 kts 34°
2026-04-21 15:39 60.24508 24.75465 3793 ft 215 kts 45°
2026-04-21 15:39 60.25494 24.77656 3259 ft 210 kts 45°
2026-04-21 15:39 60.26492 24.79889 2372 ft 216 kts 46°
2026-04-21 15:40 60.27475 24.82144 1695 ft 210 kts 46°
2026-04-21 15:40 60.28414 24.84218 1173 ft 192 kts 43°
2026-04-21 15:40 60.29333 24.86084 683 ft 183 kts 44°
2026-04-21 15:40 60.30146 24.87855 408 ft 160 kts 45°
2026-04-21 15:41 60.30834 24.89403 300 ft 143 kts 45°
2026-04-21 15:41 60.31499 24.90847 179 ft 136 kts 45°
2026-04-21 15:41 60.32110 24.92197 167 ft 123 kts 44°
2026-04-21 15:41 60.32626 24.93314 180 ft 82 kts 48°
2026-04-21 15:42 60.32883 24.93879 183 ft 30 kts 47°
2026-04-21 15:42 60.32992 24.94123 196 ft 21 kts 48°
2026-04-21 15:42 60.33051 24.94351 189 ft 15 kts 91°
2026-04-21 15:42 60.33046 24.94581 184 ft 18 kts 90°
2026-04-21 15:43 60.33005 24.94702 180 ft 11 kts 134°
2026-04-21 15:43 60.32947 24.94816 177 ft 12 kts 136°
2026-04-21 15:43 60.32875 24.94922 174 ft 13 kts 158°
2026-04-21 15:43 60.32797 24.94979 176 ft 10 kts 161°
2026-04-21 15:44 60.32739 24.95013 178 ft 7 kts 162°
2026-04-21 15:44 60.32696 24.95041 179 ft 10 kts 162°
2026-04-21 15:44 60.32583 24.95114 180 ft 20 kts 162°
2026-04-21 15:44 60.32452 24.95199 179 ft 20 kts 162°
2026-04-21 15:45 60.32323 24.95302 177 ft 20 kts 146°
2026-04-21 15:45 60.32218 24.95492 174 ft 21 kts 137°
2026-04-21 15:45 60.32110 24.95691 173 ft 21 kts 137°
2026-04-21 15:45 60.32008 24.95879 173 ft 20 kts 137°
2026-04-21 15:46 60.31973 24.96056 169 ft 15 kts 63°
2026-04-21 15:46 60.32043 24.96212 168 ft 15 kts 47°
2026-04-21 15:46 60.32115 24.96368 168 ft 15 kts 47°
2026-04-21 15:46 60.32186 24.96524 168 ft 15 kts 47°
2026-04-21 15:47 60.32246 24.96689 167 ft 14 kts 87°
2026-04-21 15:47 60.32192 24.96797 166 ft 11 kts 149°
2026-04-21 15:47 60.32129 24.96872 166 ft 12 kts 149°
2026-04-21 15:47 60.32006 24.97008 166 ft 23 kts 152°
2026-04-21 15:48 60.31865 24.97152 166 ft 22 kts 153°
2026-04-21 15:48 60.31729 24.97293 166 ft 22 kts 153°
2026-04-21 15:48 60.31594 24.97428 165 ft 22 kts 152°
2026-04-21 15:48 60.31461 24.97576 160 ft 22 kts 152°
2026-04-21 15:49 60.31330 24.97680 160 ft 18 kts 181°
2026-04-21 15:49 60.31238 24.97668 162 ft 10 kts 159°
2026-04-21 15:49 60.31181 24.97719 162 ft 8 kts 163°
2026-04-21 15:49 60.31158 24.97673 163 ft 4 kts 243°
2026-04-21 15:50 60.31150 24.97639 163 ft 2 kts 244°
2026-04-21 15:50 60.31144 24.97617 163 ft 1 kts 243°
2026-04-21 15:50 60.31141 24.97603 163 ft 1 kts 243°
2026-04-21 15:50 60.31139 24.97596 163 ft 0 kts 243°
2026-04-21 15:51 60.31138 24.97593 163 ft 1 kts 243°
2026-04-21 15:51 60.31137 24.97590 163 ft 0 kts 243°
2026-04-21 15:51 60.31137 24.97589 163 ft 0 kts 243°